Location: Aldenham
(51.6667°N, 0.3500°W)
Time: 06:19:35
(UTC+00:00)

A-11 Canister half - Pass Details

Date: 25 February 2026
Orbit: 1512 x 1687 km, 47.2° (Epoch: 5 March)

Event Time Altitude Azimuth Distance (km) Brightness Sun altitude
Rises 21:51:47 0° 264° (W) 4,942 12.1 -38.2°
Reaches altitude 10° 21:54:59 10° 263° (W) 3,949 11.5 -38.6°
Enters shadow 22:02:47 56° 238° (WSW) 1,933 9.4 -39.4°
Maximum altitude 22:05:02 70° 183° (S) 1,752 - -39.7°
Drops below altitude 10° 22:14:50 10° 102° (ESE) 3,849 - -40.7°
Sets 22:17:54 0° 101° (E) 4,812 - -41.0°
